Home > Weather > Belleville > Past weeks

Flag for Canada Weather for the Past 2 Weeks in Belleville, Ontario, Canada

Now
21 °F

Passing clouds.


Feels Like: 9 °F
Forecast: 4 / 24 °F
Wind: 13 mph from West

Location: Trenton

Current Time: Feb 12, 2016 at 10:01:09 AM

Latest Report: Feb 12, 2016 at 9:00 AM


Visibility: 15 mi

Pressure: 29.98 "Hg

Humidity: 63%

Dew point: 10 °F

Location of BellevilleLocation

Historic Weather in Belleville — Graph

°F

Belleville Temperature Yesterday

Maximum temperature yesterday: 14 °F (at 12:00 AM)
Minimum temperature yesterday: 1 °F (at 9:00 AM)
Average temperature yesterday: 7 °F

High & Low Weather Summary for the Past Weeks

 TemperatureHumidityPressure
High52 °F (Feb 3, 3:00 PM)100% (Jan 28, 12:00 PM)30.39 "Hg (Jan 28, 12:00 PM)
Low1 °F (Feb 11, 9:00 AM)35% (Feb 11, 11:00 AM)29.43 "Hg (Feb 1, 1:52 AM)
Average29 °F76%29.88 "Hg
* Reported Jan 28 9:00 AM — Feb 12 9:00 AM, Belleville, Weather by CustomWeather, © 2016

Note: Actual official high and low records may vary slightly from our data, if they occured in-between our weather recording intervals... More about our weather records

Advertising

Belleville Weather History for the Previous 24 Hours

 ConditionsComfort  
Time TempWeatherWind HumidityBarometerVisibility
9:00 AM
Fri, Feb 12
21 °FPassing clouds.13 mph63%29.98 "Hg15 mi
8:00 AM19 °FPassing clouds.13 mph68%30.01 "Hg15 mi
7:00 AM12 °FPassing clouds.8 mph79%30.03 "Hg15 mi
6:00 AM3 °FPassing clouds.6 mph78%30.06 "Hg15 mi
5:00 AM5 °FPassing clouds.5 mph72%30.08 "Hg15 mi
4:00 AM9 °FPassing clouds.No wind72%30.10 "Hg9 mi
3:00 AM7 °FPassing clouds.5 mph72%30.13 "Hg15 mi
2:00 AM5 °FPassing clouds.2 mph72%30.16 "Hg15 mi
1:00 AM5 °FPassing clouds.3 mph60%30.19 "Hg15 mi
12:00 AM5 °FClear.2 mph66%30.20 "Hg15 mi
11:00 PM
Thu, Feb 11
5 °FClear.5 mph60%30.22 "Hg15 mi
10:00 PM5 °FClear.7 mph55%30.21 "Hg15 mi
9:00 PM5 °FClear.7 mph55%30.20 "Hg15 mi
8:00 PM7 °FClear.9 mph51%30.19 "Hg15 mi
7:00 PM7 °FClear.8 mph47%30.17 "Hg15 mi
6:00 PM9 °FPassing clouds.10 mph43%30.14 "Hg15 mi
5:00 PM9 °FPassing clouds.17 mph47%30.11 "Hg15 mi
4:00 PM10 °FPassing clouds.16 mph44%30.09 "Hg15 mi
3:00 PM10 °FPartly sunny.18 mph44%30.06 "Hg15 mi
2:00 PM9 °FPartly sunny.15 mph51%30.04 "Hg15 mi
1:00 PM7 °FBroken clouds.14 mph51%30.03 "Hg9 mi
12:00 PM5 °FPartly sunny.14 mph46%30.03 "Hg9 mi
11:00 AM5 °FBroken clouds.15 mph35%30.02 "Hg7 mi
10:00 AM3 °FLight snow. Broken clouds.12 mph66%29.99 "Hg5 mi
Weather by CustomWeather, © 2016

See weather overviewHow to use our weather pages